owner,sensor,date,latitude,longitude,vertical_datum,mass_concentration_of_oxygen_in_sea_water,qcFlag 
DISL,ioos:station:DISL:PPTA:1,2017-08-01T00:00:00Z,30.2791,-87.5561,1.348,6.05,1111122 
DISL,ioos:station:DISL:PPTA:1,2017-08-01T00:30:00Z,30.2791,-87.5561,1.327,6.18,1111122 
DISL,ioos:station:DISL:PPTA:1,2017-08-01T01:00:00Z,30.2791,-87.5561,1.32,5.64,1111122 
DISL,ioos:station:DISL:PPTA:1,2017-08-01T01:30:00Z,30.2791,-87.5561,1.321,5.04,1111122 
DISL,ioos:station:DISL:PPTA:1,2017-08-01T02:00:00Z,30.2791,-87.5561,1.324,5.3,1111122 
DISL,ioos:station:DISL:PPTA:1,2017-08-01T02:30:00Z,30.2791,-87.5561,1.339,5.39,1111122 
DISL,ioos:station:DISL:PPTA:1,2017-08-01T03:00:00Z,30.2791,-87.5561,1.328,3.53,1111122 
DISL,ioos:station:DISL:PPTA:1,2017-08-01T03:30:00Z,30.2791,-87.5561,1.355,5.07,1111122 
DISL,ioos:station:DISL:PPTA:1,2017-08-01T04:00:00Z,30.2791,-87.5561,1.342,4.92,1111122 
DISL,ioos:station:DISL:PPTA:1,2017-08-01T04:30:00Z,30.2791,-87.5561,1.343,3.58,1111122 
DISL,ioos:station:DISL:PPTA:1,2017-08-01T05:00:00Z,30.2791,-87.5561,1.371,4.12,1111122 
DISL,ioos:station:DISL:PPTA:1,2017-08-01T05:30:00Z,30.2791,-87.5561,1.368,4.34,1111122 
DISL,ioos:station:DISL:PPTA:1,2017-08-01T06:00:00Z,30.2791,-87.5561,1.386,4.48,1111122 
DISL,ioos:station:DISL:PPTA:1,2017-08-01T06:30:00Z,30.2791,-87.5561,1.39,3.17,1111122 
DISL,ioos:station:DISL:PPTA:1,2017-08-01T07:00:00Z,30.2791,-87.5561,1.415,4.7,1111122 
DISL,ioos:station:DISL:PPTA:1,2017-08-01T07:30:00Z,30.2791,-87.5561,1.425,4.74,1111122 
DISL,ioos:station:DISL:PPTA:1,2017-08-01T08:00:00Z,30.2791,-87.5561,1.439,4.72,1111122 
DISL,ioos:station:DISL:PPTA:1,2017-08-01T08:30:00Z,30.2791,-87.5561,1.445,3.9,1111122 
DISL,ioos:station:DISL:PPTA:1,2017-08-01T09:00:00Z,30.2791,-87.5561,1.461,4.14,1111122 
DISL,ioos:station:DISL:PPTA:1,2017-08-01T09:30:00Z,30.2791,-87.5561,1.458,4.49,1111122 
DISL,ioos:station:DISL:PPTA:1,2017-08-01T10:00:00Z,30.2791,-87.5561,1.471,2.96,1111122 
DISL,ioos:station:DISL:PPTA:1,2017-08-01T10:30:00Z,30.2791,-87.5561,1.483,4.17,1111122 
DISL,ioos:station:DISL:PPTA:1,2017-08-01T11:00:00Z,30.2791,-87.5561,1.497,4.74,1111122 
DISL,ioos:station:DISL:PPTA:1,2017-08-01T11:30:00Z,30.2791,-87.5561,1.487,5.05,1111122 
DISL,ioos:station:DISL:PPTA:1,2017-08-01T12:00:00Z,30.2791,-87.5561,1.498,4.05,1111122 
DISL,ioos:station:DISL:PPTA:1,2017-08-01T12:30:00Z,30.2791,-87.5561,1.508,4.87,1111122 
DISL,ioos:station:DISL:PPTA:1,2017-08-01T13:00:00Z,30.2791,-87.5561,1.509,4.33,1111122 
DISL,ioos:station:DISL:PPTA:1,2017-08-01T13:30:00Z,30.2791,-87.5561,1.491,4.17,1111122 
DISL,ioos:station:DISL:PPTA:1,2017-08-01T14:00:00Z,30.2791,-87.5561,1.487,3.93,1111122 
DISL,ioos:station:DISL:PPTA:1,2017-08-01T14:30:00Z,30.2791,-87.5561,1.479,4.18,1111122 
DISL,ioos:station:DISL:PPTA:1,2017-08-01T15:00:00Z,30.2791,-87.5561,1.462,4.21,1111122 
DISL,ioos:station:DISL:PPTA:1,2017-08-01T15:30:00Z,30.2791,-87.5561,1.455,5.51,1111122 
DISL,ioos:station:DISL:PPTA:1,2017-08-01T16:00:00Z,30.2791,-87.5561,1.461,4.52,1111122 
DISL,ioos:station:DISL:PPTA:1,2017-08-01T16:30:00Z,30.2791,-87.5561,1.449,6.27,1111122 
DISL,ioos:station:DISL:PPTA:1,2017-08-01T17:00:00Z,30.2791,-87.5561,1.417,6.21,1111122 
DISL,ioos:station:DISL:PPTA:1,2017-08-01T17:30:00Z,30.2791,-87.5561,1.428,4.25,1111122 
DISL,ioos:station:DISL:PPTA:1,2017-08-01T18:00:00Z,30.2791,-87.5561,1.415,5.67,1111122 
DISL,ioos:station:DISL:PPTA:1,2017-08-01T18:30:00Z,30.2791,-87.5561,1.404,6.21,1111122 
DISL,ioos:station:DISL:PPTA:1,2017-08-01T19:00:00Z,30.2791,-87.5561,1.372,5.67,1111122 
DISL,ioos:station:DISL:PPTA:1,2017-08-01T19:30:00Z,30.2791,-87.5561,1.349,5.59,1111122 
DISL,ioos:station:DISL:PPTA:1,2017-08-01T20:00:00Z,30.2791,-87.5561,1.359,6.18,1111122 
DISL,ioos:station:DISL:PPTA:1,2017-08-01T20:30:00Z,30.2791,-87.5561,1.351,6.44,1111122 
DISL,ioos:station:DISL:PPTA:1,2017-08-01T21:00:00Z,30.2791,-87.5561,1.335,4.63,1111122 
DISL,ioos:station:DISL:PPTA:1,2017-08-01T21:30:00Z,30.2791,-87.5561,1.317,6.26,1111122 
DISL,ioos:station:DISL:PPTA:1,2017-08-01T22:00:00Z,30.2791,-87.5561,1.309,6.25,1111122 
DISL,ioos:station:DISL:PPTA:1,2017-08-01T22:30:00Z,30.2791,-87.5561,1.321,6.64,1111122 
DISL,ioos:station:DISL:PPTA:1,2017-08-01T23:00:00Z,30.2791,-87.5561,1.309,6.17,1111122 
DISL,ioos:station:DISL:PPTA:1,2017-08-01T23:30:00Z,30.2791,-87.5561,1.312,5.87,1111122 
DISL,ioos:station:DISL:PPTA:1,2017-08-02T00:00:00Z,30.2791,-87.5561,1.3,6.15,1111122 
DISL,ioos:station:DISL:PPTA:1,2017-08-02T00:30:00Z,30.2791,-87.5561,1.296,5.37,1111122 
DISL,ioos:station:DISL:PPTA:1,2017-08-02T01:00:00Z,30.2791,-87.5561,1.296,4.39,1111122 
DISL,ioos:station:DISL:PPTA:1,2017-08-02T01:30:00Z,30.2791,-87.5561,1.306,5.48,1111122 
DISL,ioos:station:DISL:PPTA:1,2017-08-02T02:00:00Z,30.2791,-87.5561,1.307,4.86,1111122 
DISL,ioos:station:DISL:PPTA:1,2017-08-02T02:30:00Z,30.2791,-87.5561,1.303,5.15,1111122 
DISL,ioos:station:DISL:PPTA:1,2017-08-02T03:00:00Z,30.2791,-87.5561,1.291,4.47,1111122 
DISL,ioos:station:DISL:PPTA:1,2017-08-02T03:30:00Z,30.2791,-87.5561,1.305,5.34,1111122 
DISL,ioos:station:DISL:PPTA:1,2017-08-02T04:00:00Z,30.2791,-87.5561,1.301,4.92,1111122 
DISL,ioos:station:DISL:PPTA:1,2017-08-02T04:30:00Z,30.2791,-87.5561,1.323,3.46,1111122 
DISL,ioos:station:DISL:PPTA:1,2017-08-02T05:00:00Z,30.2791,-87.5561,1.318,4.55,1111122 
DISL,ioos:station:DISL:PPTA:1,2017-08-02T05:30:00Z,30.2791,-87.5561,1.34,5.18,1111122 
DISL,ioos:station:DISL:PPTA:1,2017-08-02T06:00:00Z,30.2791,-87.5561,1.376,4.72,1111122 
DISL,ioos:station:DISL:PPTA:1,2017-08-02T06:30:00Z,30.2791,-87.5561,1.383,4.54,1111122 
DISL,ioos:station:DISL:PPTA:1,2017-08-02T07:00:00Z,30.2791,-87.5561,1.387,5.11,1111122 
DISL,ioos:station:DISL:PPTA:1,2017-08-02T07:30:00Z,30.2791,-87.5561,1.403,4.99,1111122 
DISL,ioos:station:DISL:PPTA:1,2017-08-02T08:00:00Z,30.2791,-87.5561,1.421,4.43,1111122 
DISL,ioos:station:DISL:PPTA:1,2017-08-02T08:30:00Z,30.2791,-87.5561,1.436,4.1,1111122 
DISL,ioos:station:DISL:PPTA:1,2017-08-02T09:00:00Z,30.2791,-87.5561,1.45,4.42,1111122 
DISL,ioos:station:DISL:PPTA:1,2017-08-02T09:30:00Z,30.2791,-87.5561,1.46,4.38,1111122 
DISL,ioos:station:DISL:PPTA:1,2017-08-02T10:00:00Z,30.2791,-87.5561,1.475,4.14,1111122 
DISL,ioos:station:DISL:PPTA:1,2017-08-02T10:30:00Z,30.2791,-87.5561,1.498,3.91,1111122 
DISL,ioos:station:DISL:PPTA:1,2017-08-02T11:00:00Z,30.2791,-87.5561,1.49,4.57,1111122 
DISL,ioos:station:DISL:PPTA:1,2017-08-02T11:30:00Z,30.2791,-87.5561,1.489,4.92,1111122 
DISL,ioos:station:DISL:PPTA:1,2017-08-02T12:00:00Z,30.2791,-87.5561,1.5,3.25,1111122 
DISL,ioos:station:DISL:PPTA:1,2017-08-02T12:30:00Z,30.2791,-87.5561,1.508,4.53,1111122 
DISL,ioos:station:DISL:PPTA:1,2017-08-02T13:00:00Z,30.2791,-87.5561,1.503,5.2,1111122 
DISL,ioos:station:DISL:PPTA:1,2017-08-02T13:30:00Z,30.2791,-87.5561,1.512,4.88,1111122 
DISL,ioos:station:DISL:PPTA:1,2017-08-02T14:00:00Z,30.2791,-87.5561,1.518,5.08,1111122 
DISL,ioos:station:DISL:PPTA:1,2017-08-02T14:30:00Z,30.2791,-87.5561,1.503,4.66,1111122 
DISL,ioos:station:DISL:PPTA:1,2017-08-02T15:00:00Z,30.2791,-87.5561,1.489,5.3,1111122 
DISL,ioos:station:DISL:PPTA:1,2017-08-02T15:30:00Z,30.2791,-87.5561,1.452,5.01,1111122 
DISL,ioos:station:DISL:PPTA:1,2017-08-02T16:00:00Z,30.2791,-87.5561,1.463,4.32,1111122 
DISL,ioos:station:DISL:PPTA:1,2017-08-02T16:30:00Z,30.2791,-87.5561,1.457,5.06,1111122 
DISL,ioos:station:DISL:PPTA:1,2017-08-02T17:00:00Z,30.2791,-87.5561,1.446,6.41,1111122 
DISL,ioos:station:DISL:PPTA:1,2017-08-02T17:30:00Z,30.2791,-87.5561,1.423,6.25,1111122 
DISL,ioos:station:DISL:PPTA:1,2017-08-02T18:00:00Z,30.2791,-87.5561,1.411,5.8,1111122 
DISL,ioos:station:DISL:PPTA:1,2017-08-02T18:30:00Z,30.2791,-87.5561,1.408,6.32,1111122 
DISL,ioos:station:DISL:PPTA:1,2017-08-02T19:00:00Z,30.2791,-87.5561,1.403,6.37,1111122 
DISL,ioos:station:DISL:PPTA:1,2017-08-02T19:30:00Z,30.2791,-87.5561,1.36,5.12,1111122 
DISL,ioos:station:DISL:PPTA:1,2017-08-02T20:00:00Z,30.2791,-87.5561,1.355,6.46,1111122 
DISL,ioos:station:DISL:PPTA:1,2017-08-02T20:30:00Z,30.2791,-87.5561,1.356,6.69,1111122 
DISL,ioos:station:DISL:PPTA:1,2017-08-02T21:00:00Z,30.2791,-87.5561,1.333,6.81,1111122 
DISL,ioos:station:DISL:PPTA:1,2017-08-02T21:30:00Z,30.2791,-87.5561,1.317,6.15,1111122 
DISL,ioos:station:DISL:PPTA:1,2017-08-02T22:00:00Z,30.2791,-87.5561,1.303,6.51,1111122 
DISL,ioos:station:DISL:PPTA:1,2017-08-02T22:30:00Z,30.2791,-87.5561,1.319,6.71,1111122 
DISL,ioos:station:DISL:PPTA:1,2017-08-02T23:00:00Z,30.2791,-87.5561,1.312,5.76,1111122 
DISL,ioos:station:DISL:PPTA:1,2017-08-02T23:30:00Z,30.2791,-87.5561,1.305,6.48,1111122 
DISL,ioos:station:DISL:PPTA:1,2017-08-03T00:00:00Z,30.2791,-87.5561,1.306,5.87,1111122 
DISL,ioos:station:DISL:PPTA:1,2017-08-03T00:30:00Z,30.2791,-87.5561,1.3,5.7,1111122 
DISL,ioos:station:DISL:PPTA:1,2017-08-03T01:00:00Z,30.2791,-87.5561,1.295,5.48,1111122 
DISL,ioos:station:DISL:PPTA:1,2017-08-03T01:30:00Z,30.2791,-87.5561,1.305,5.47,1111122 
DISL,ioos:station:DISL:PPTA:1,2017-08-03T02:00:00Z,30.2791,-87.5561,1.296,5.47,1111122 
DISL,ioos:station:DISL:PPTA:1,2017-08-03T02:30:00Z,30.2791,-87.5561,1.287,4.59,1111122 
DISL,ioos:station:DISL:PPTA:1,2017-08-03T03:00:00Z,30.2791,-87.5561,1.307,4.65,1111122 
DISL,ioos:station:DISL:PPTA:1,2017-08-03T03:30:00Z,30.2791,-87.5561,1.331,5.88,1111122 
DISL,ioos:station:DISL:PPTA:1,2017-08-03T04:00:00Z,30.2791,-87.5561,1.323,5.35,1111122 
DISL,ioos:station:DISL:PPTA:1,2017-08-03T04:30:00Z,30.2791,-87.5561,1.338,5.09,1111122 
DISL,ioos:station:DISL:PPTA:1,2017-08-03T05:00:00Z,30.2791,-87.5561,1.347,4.78,1111122 
DISL,ioos:station:DISL:PPTA:1,2017-08-03T05:30:00Z,30.2791,-87.5561,1.352,5.44,1111122 
DISL,ioos:station:DISL:PPTA:1,2017-08-03T06:00:00Z,30.2791,-87.5561,1.371,4.89,1111122 
DISL,ioos:station:DISL:PPTA:1,2017-08-03T06:30:00Z,30.2791,-87.5561,1.392,3.76,1111122 
DISL,ioos:station:DISL:PPTA:1,2017-08-03T07:00:00Z,30.2791,-87.5561,1.387,5.08,1111122 
DISL,ioos:station:DISL:PPTA:1,2017-08-03T07:30:00Z,30.2791,-87.5561,1.403,4.87,1111122 
DISL,ioos:station:DISL:PPTA:1,2017-08-03T08:00:00Z,30.2791,-87.5561,1.433,4.81,1111122 
DISL,ioos:station:DISL:PPTA:1,2017-08-03T08:30:00Z,30.2791,-87.5561,1.462,4.43,1111122 
DISL,ioos:station:DISL:PPTA:1,2017-08-03T09:00:00Z,30.2791,-87.5561,1.474,4.74,1111122 
DISL,ioos:station:DISL:PPTA:1,2017-08-03T09:30:00Z,30.2791,-87.5561,1.492,5.43,1111122 
DISL,ioos:station:DISL:PPTA:1,2017-08-03T10:00:00Z,30.2791,-87.5561,1.509,4.25,1111122 
DISL,ioos:station:DISL:PPTA:1,2017-08-03T10:30:00Z,30.2791,-87.5561,1.507,4.86,1111122 
DISL,ioos:station:DISL:PPTA:1,2017-08-03T11:00:00Z,30.2791,-87.5561,1.52,4.93,1111122 
DISL,ioos:station:DISL:PPTA:1,2017-08-03T11:30:00Z,30.2791,-87.5561,1.534,4.6,1111122 
DISL,ioos:station:DISL:PPTA:1,2017-08-03T12:00:00Z,30.2791,-87.5561,1.547,4.5,1111122 
DISL,ioos:station:DISL:PPTA:1,2017-08-03T12:30:00Z,30.2791,-87.5561,1.549,4.63,1111122 
DISL,ioos:station:DISL:PPTA:1,2017-08-03T13:00:00Z,30.2791,-87.5561,1.557,4.41,1111122 
DISL,ioos:station:DISL:PPTA:1,2017-08-03T13:30:00Z,30.2791,-87.5561,1.565,4.56,1111122 
DISL,ioos:station:DISL:PPTA:1,2017-08-03T14:00:00Z,30.2791,-87.5561,1.517,4.02,1111122 
DISL,ioos:station:DISL:PPTA:1,2017-08-03T14:30:00Z,30.2791,-87.5561,1.527,4.55,1111122 
DISL,ioos:station:DISL:PPTA:1,2017-08-03T15:00:00Z,30.2791,-87.5561,1.549,4.61,1111122 
DISL,ioos:station:DISL:PPTA:1,2017-08-03T15:30:00Z,30.2791,-87.5561,1.512,4.56,1111122 
DISL,ioos:station:DISL:PPTA:1,2017-08-03T16:00:00Z,30.2791,-87.5561,1.538,4.23,1111122 
DISL,ioos:station:DISL:PPTA:1,2017-08-03T16:30:00Z,30.2791,-87.5561,1.512,5.33,1111122 
DISL,ioos:station:DISL:PPTA:1,2017-08-03T17:00:00Z,30.2791,-87.5561,1.491,4.81,1111122 
DISL,ioos:station:DISL:PPTA:1,2017-08-03T17:30:00Z,30.2791,-87.5561,1.498,4.47,1111122 
DISL,ioos:station:DISL:PPTA:1,2017-08-03T18:00:00Z,30.2791,-87.5561,1.455,5.85,1111122 
DISL,ioos:station:DISL:PPTA:1,2017-08-03T18:30:00Z,30.2791,-87.5561,1.454,5.68,1111122 
DISL,ioos:station:DISL:PPTA:1,2017-08-03T19:00:00Z,30.2791,-87.5561,1.421,5.72,1111122 
DISL,ioos:station:DISL:PPTA:1,2017-08-03T19:30:00Z,30.2791,-87.5561,1.406,4.58,1111122 
DISL,ioos:station:DISL:PPTA:1,2017-08-03T20:00:00Z,30.2791,-87.5561,1.411,5.38,1111122 
DISL,ioos:station:DISL:PPTA:1,2017-08-03T20:30:00Z,30.2791,-87.5561,1.379,5.67,1111122 
DISL,ioos:station:DISL:PPTA:1,2017-08-03T21:00:00Z,30.2791,-87.5561,1.392,4.99,1111122 
DISL,ioos:station:DISL:PPTA:1,2017-08-03T21:30:00Z,30.2791,-87.5561,1.365,5.49,1111122 
DISL,ioos:station:DISL:PPTA:1,2017-08-03T22:00:00Z,30.2791,-87.5561,1.349,5.97,1111122 
DISL,ioos:station:DISL:PPTA:1,2017-08-03T22:30:00Z,30.2791,-87.5561,1.374,5.97,1111122 
DISL,ioos:station:DISL:PPTA:1,2017-08-03T23:00:00Z,30.2791,-87.5561,1.346,5.64,1111122 
DISL,ioos:station:DISL:PPTA:1,2017-08-03T23:30:00Z,30.2791,-87.5561,1.309,5.84,1111122 
DISL,ioos:station:DISL:PPTA:1,2017-08-04T00:00:00Z,30.2791,-87.5561,1.294,6.31,1111122 
DISL,ioos:station:DISL:PPTA:1,2017-08-04T00:30:00Z,30.2791,-87.5561,1.3,6.03,1111122 
DISL,ioos:station:DISL:PPTA:1,2017-08-04T01:00:00Z,30.2791,-87.5561,1.297,5.12,1111122 
DISL,ioos:station:DISL:PPTA:1,2017-08-04T01:30:00Z,30.2791,-87.5561,1.309,5.25,1111122 
DISL,ioos:station:DISL:PPTA:1,2017-08-04T02:00:00Z,30.2791,-87.5561,1.313,4.3,1111122 
DISL,ioos:station:DISL:PPTA:1,2017-08-04T02:30:00Z,30.2791,-87.5561,1.316,5.3,1111122 
DISL,ioos:station:DISL:PPTA:1,2017-08-04T03:00:00Z,30.2791,-87.5561,1.326,4.56,1111122 
DISL,ioos:station:DISL:PPTA:1,2017-08-04T03:30:00Z,30.2791,-87.5561,1.315,5.33,1111122 
DISL,ioos:station:DISL:PPTA:1,2017-08-04T04:00:00Z,30.2791,-87.5561,1.299,4.18,1111122 
DISL,ioos:station:DISL:PPTA:1,2017-08-04T04:30:00Z,30.2791,-87.5561,1.324,3.51,1111122 
DISL,ioos:station:DISL:PPTA:1,2017-08-04T05:00:00Z,30.2791,-87.5561,1.317,4.93,1111122 
DISL,ioos:station:DISL:PPTA:1,2017-08-04T05:30:00Z,30.2791,-87.5561,1.322,5.02,1111122 
DISL,ioos:station:DISL:PPTA:1,2017-08-04T06:00:00Z,30.2791,-87.5561,1.349,4.64,1111122 
DISL,ioos:station:DISL:PPTA:1,2017-08-04T06:30:00Z,30.2791,-87.5561,1.351,4.55,1111122 
DISL,ioos:station:DISL:PPTA:1,2017-08-04T07:00:00Z,30.2791,-87.5561,1.358,5.11,1111122 
DISL,ioos:station:DISL:PPTA:1,2017-08-04T07:30:00Z,30.2791,-87.5561,1.388,4.84,1111122 
DISL,ioos:station:DISL:PPTA:1,2017-08-04T08:00:00Z,30.2791,-87.5561,1.403,4.25,1111122 
DISL,ioos:station:DISL:PPTA:1,2017-08-04T08:30:00Z,30.2791,-87.5561,1.404,4.86,1111122 
DISL,ioos:station:DISL:PPTA:1,2017-08-04T09:00:00Z,30.2791,-87.5561,1.425,4.89,1111122 
DISL,ioos:station:DISL:PPTA:1,2017-08-04T09:30:00Z,30.2791,-87.5561,1.443,4.99,1111122 
DISL,ioos:station:DISL:PPTA:1,2017-08-04T10:00:00Z,30.2791,-87.5561,1.445,4.28,1111122 
DISL,ioos:station:DISL:PPTA:1,2017-08-04T10:30:00Z,30.2791,-87.5561,1.47,4.91,1111122 
DISL,ioos:station:DISL:PPTA:1,2017-08-04T11:00:00Z,30.2791,-87.5561,1.486,4.66,1111122 
DISL,ioos:station:DISL:PPTA:1,2017-08-04T11:30:00Z,30.2791,-87.5561,1.513,5.01,1111122 
DISL,ioos:station:DISL:PPTA:1,2017-08-04T12:00:00Z,30.2791,-87.5561,1.54,4.04,1111122 
DISL,ioos:station:DISL:PPTA:1,2017-08-04T12:30:00Z,30.2791,-87.5561,1.533,5.23,1111122 
DISL,ioos:station:DISL:PPTA:1,2017-08-04T13:00:00Z,30.2791,-87.5561,1.536,4.84,1111122 
DISL,ioos:station:DISL:PPTA:1,2017-08-04T13:30:00Z,30.2791,-87.5561,1.566,4.86,1111122 
DISL,ioos:station:DISL:PPTA:1,2017-08-04T14:00:00Z,30.2791,-87.5561,1.584,4.0,1111122 
DISL,ioos:station:DISL:PPTA:1,2017-08-04T14:30:00Z,30.2791,-87.5561,1.572,4.64,1111122 
DISL,ioos:station:DISL:PPTA:1,2017-08-04T15:00:00Z,30.2791,-87.5561,1.557,5.55,1111122 
DISL,ioos:station:DISL:PPTA:1,2017-08-04T15:30:00Z,30.2791,-87.5561,1.554,4.11,1111122 
DISL,ioos:station:DISL:PPTA:1,2017-08-04T16:00:00Z,30.2791,-87.5561,1.555,5.11,1111122 
DISL,ioos:station:DISL:PPTA:1,2017-08-04T16:30:00Z,30.2791,-87.5561,1.516,5.3,1111122 
DISL,ioos:station:DISL:PPTA:1,2017-08-04T17:00:00Z,30.2791,-87.5561,1.548,5.64,1111122 
DISL,ioos:station:DISL:PPTA:1,2017-08-04T17:30:00Z,30.2791,-87.5561,1.505,5.25,1111122 
DISL,ioos:station:DISL:PPTA:1,2017-08-04T18:00:00Z,30.2791,-87.5561,1.503,5.69,1111122 
DISL,ioos:station:DISL:PPTA:1,2017-08-04T18:30:00Z,30.2791,-87.5561,1.46,5.28,1111122 
DISL,ioos:station:DISL:PPTA:1,2017-08-04T19:00:00Z,30.2791,-87.5561,1.429,5.23,1111122 
DISL,ioos:station:DISL:PPTA:1,2017-08-04T19:30:00Z,30.2791,-87.5561,1.458,4.96,1111122 
DISL,ioos:station:DISL:PPTA:1,2017-08-04T20:00:00Z,30.2791,-87.5561,1.448,5.6,1111122 
DISL,ioos:station:DISL:PPTA:1,2017-08-04T20:30:00Z,30.2791,-87.5561,1.41,5.44,1111122 
DISL,ioos:station:DISL:PPTA:1,2017-08-04T21:00:00Z,30.2791,-87.5561,1.411,5.85,1111122 
DISL,ioos:station:DISL:PPTA:1,2017-08-04T21:30:00Z,30.2791,-87.5561,1.383,5.3,1111122 
DISL,ioos:station:DISL:PPTA:1,2017-08-04T22:00:00Z,30.2791,-87.5561,1.358,6.19,1111122 
DISL,ioos:station:DISL:PPTA:1,2017-08-04T22:30:00Z,30.2791,-87.5561,1.367,6.51,1111122 
DISL,ioos:station:DISL:PPTA:1,2017-08-04T23:00:00Z,30.2791,-87.5561,1.327,5.21,1111122 
DISL,ioos:station:DISL:PPTA:1,2017-08-04T23:30:00Z,30.2791,-87.5561,1.302,6.08,1111122 
DISL,ioos:station:DISL:PPTA:1,2017-08-05T00:00:00Z,30.2791,-87.5561,1.307,6.04,1111122 
DISL,ioos:station:DISL:PPTA:1,2017-08-05T00:30:00Z,30.2791,-87.5561,1.301,6.41,1111122 
DISL,ioos:station:DISL:PPTA:1,2017-08-05T01:00:00Z,30.2791,-87.5561,1.344,6.29,1111122 
DISL,ioos:station:DISL:PPTA:1,2017-08-05T01:30:00Z,30.2791,-87.5561,1.305,6.0,1111122 
DISL,ioos:station:DISL:PPTA:1,2017-08-05T02:00:00Z,30.2791,-87.5561,1.332,6.15,1111122 
DISL,ioos:station:DISL:PPTA:1,2017-08-05T02:30:00Z,30.2791,-87.5561,1.319,6.01,1111122 
DISL,ioos:station:DISL:PPTA:1,2017-08-05T03:00:00Z,30.2791,-87.5561,1.359,5.01,1111122 
DISL,ioos:station:DISL:PPTA:1,2017-08-05T03:30:00Z,30.2791,-87.5561,1.383,5.68,1111122 
DISL,ioos:station:DISL:PPTA:1,2017-08-05T04:00:00Z,30.2791,-87.5561,1.372,4.92,1111122 
DISL,ioos:station:DISL:PPTA:1,2017-08-05T04:30:00Z,30.2791,-87.5561,1.371,5.51,1111122 
DISL,ioos:station:DISL:PPTA:1,2017-08-05T05:00:00Z,30.2791,-87.5561,1.373,4.14,1111122 
DISL,ioos:station:DISL:PPTA:1,2017-08-05T05:30:00Z,30.2791,-87.5561,1.381,4.87,1111122 
DISL,ioos:station:DISL:PPTA:1,2017-08-05T06:00:00Z,30.2791,-87.5561,1.384,3.94,1111122 
DISL,ioos:station:DISL:PPTA:1,2017-08-05T06:30:00Z,30.2791,-87.5561,1.4,3.9,1111122 
DISL,ioos:station:DISL:PPTA:1,2017-08-05T07:00:00Z,30.2791,-87.5561,1.411,4.14,1111122 
DISL,ioos:station:DISL:PPTA:1,2017-08-05T07:30:00Z,30.2791,-87.5561,1.425,4.84,1111122 
DISL,ioos:station:DISL:PPTA:1,2017-08-05T08:00:00Z,30.2791,-87.5561,1.428,5.08,1111122 
DISL,ioos:station:DISL:PPTA:1,2017-08-05T08:30:00Z,30.2791,-87.5561,1.45,4.51,1111122 
DISL,ioos:station:DISL:PPTA:1,2017-08-05T09:00:00Z,30.2791,-87.5561,1.451,3.78,1111122 
DISL,ioos:station:DISL:PPTA:1,2017-08-05T09:30:00Z,30.2791,-87.5561,1.474,4.33,1111122 
DISL,ioos:station:DISL:PPTA:1,2017-08-05T10:00:00Z,30.2791,-87.5561,1.491,4.24,1111122 
DISL,ioos:station:DISL:PPTA:1,2017-08-05T10:30:00Z,30.2791,-87.5561,1.506,3.19,1111122 
DISL,ioos:station:DISL:PPTA:1,2017-08-05T11:00:00Z,30.2791,-87.5561,1.526,3.9,1111122 
DISL,ioos:station:DISL:PPTA:1,2017-08-05T11:30:00Z,30.2791,-87.5561,1.541,3.82,1111122 
DISL,ioos:station:DISL:PPTA:1,2017-08-05T12:00:00Z,30.2791,-87.5561,1.554,3.43,1111122 
DISL,ioos:station:DISL:PPTA:1,2017-08-05T12:30:00Z,30.2791,-87.5561,1.561,3.27,1111122 
DISL,ioos:station:DISL:PPTA:1,2017-08-05T13:00:00Z,30.2791,-87.5561,1.569,2.96,1111122 
DISL,ioos:station:DISL:PPTA:1,2017-08-05T13:30:00Z,30.2791,-87.5561,1.576,2.76,1111122 
DISL,ioos:station:DISL:PPTA:1,2017-08-05T14:00:00Z,30.2791,-87.5561,1.58,2.9,1111122 
DISL,ioos:station:DISL:PPTA:1,2017-08-05T14:30:00Z,30.2791,-87.5561,1.584,1.75,1111122 
DISL,ioos:station:DISL:PPTA:1,2017-08-05T15:00:00Z,30.2791,-87.5561,1.559,2.67,1111122 
DISL,ioos:station:DISL:PPTA:1,2017-08-05T15:30:00Z,30.2791,-87.5561,1.557,2.63,1111122 
DISL,ioos:station:DISL:PPTA:1,2017-08-05T16:00:00Z,30.2791,-87.5561,1.543,3.18,1111122 
DISL,ioos:station:DISL:PPTA:1,2017-08-05T16:30:00Z,30.2791,-87.5561,1.56,3.77,1111122 
DISL,ioos:station:DISL:PPTA:1,2017-08-05T17:00:00Z,30.2791,-87.5561,1.54,4.73,1111122 
DISL,ioos:station:DISL:PPTA:1,2017-08-05T17:30:00Z,30.2791,-87.5561,1.514,3.55,1111122 
DISL,ioos:station:DISL:PPTA:1,2017-08-05T18:00:00Z,30.2791,-87.5561,1.509,2.98,1111122 
DISL,ioos:station:DISL:PPTA:1,2017-08-05T18:30:00Z,30.2791,-87.5561,1.476,4.74,1111122 
DISL,ioos:station:DISL:PPTA:1,2017-08-05T19:00:00Z,30.2791,-87.5561,1.473,4.9,1111122 
DISL,ioos:station:DISL:PPTA:1,2017-08-05T19:30:00Z,30.2791,-87.5561,1.45,4.71,1111122 
DISL,ioos:station:DISL:PPTA:1,2017-08-05T20:00:00Z,30.2791,-87.5561,1.422,5.47,1111122 
DISL,ioos:station:DISL:PPTA:1,2017-08-05T20:30:00Z,30.2791,-87.5561,1.406,5.01,1111122 
DISL,ioos:station:DISL:PPTA:1,2017-08-05T21:00:00Z,30.2791,-87.5561,1.384,5.31,1111122 
DISL,ioos:station:DISL:PPTA:1,2017-08-05T21:30:00Z,30.2791,-87.5561,1.381,5.85,1111122 
DISL,ioos:station:DISL:PPTA:1,2017-08-05T22:00:00Z,30.2791,-87.5561,1.363,4.94,1111122 
DISL,ioos:station:DISL:PPTA:1,2017-08-05T22:30:00Z,30.2791,-87.5561,1.347,6.55,1111122 
DISL,ioos:station:DISL:PPTA:1,2017-08-05T23:00:00Z,30.2791,-87.5561,1.335,6.79,1111122 
DISL,ioos:station:DISL:PPTA:1,2017-08-05T23:30:00Z,30.2791,-87.5561,1.337,6.56,1111122 
DISL,ioos:station:DISL:PPTA:1,2017-08-06T00:00:00Z,30.2791,-87.5561,1.348,6.06,1111122 
DISL,ioos:station:DISL:PPTA:1,2017-08-06T00:30:00Z,30.2791,-87.5561,1.327,6.18,1111122 
DISL,ioos:station:DISL:PPTA:1,2017-08-06T01:00:00Z,30.2791,-87.5561,1.317,6.48,1111122 
DISL,ioos:station:DISL:PPTA:1,2017-08-06T01:30:00Z,30.2791,-87.5561,1.313,5.36,1111122 
DISL,ioos:station:DISL:PPTA:1,2017-08-06T02:00:00Z,30.2791,-87.5561,1.303,5.63,1111122 
DISL,ioos:station:DISL:PPTA:1,2017-08-06T02:30:00Z,30.2791,-87.5561,1.316,5.68,1111122 
DISL,ioos:station:DISL:PPTA:1,2017-08-06T03:00:00Z,30.2791,-87.5561,1.328,5.87,1111122 
DISL,ioos:station:DISL:PPTA:1,2017-08-06T03:30:00Z,30.2791,-87.5561,1.313,4.82,1111122 
DISL,ioos:station:DISL:PPTA:1,2017-08-06T04:00:00Z,30.2791,-87.5561,1.34,5.34,1111122 
DISL,ioos:station:DISL:PPTA:1,2017-08-06T04:30:00Z,30.2791,-87.5561,1.334,5.14,1111122 
DISL,ioos:station:DISL:PPTA:1,2017-08-06T05:00:00Z,30.2791,-87.5561,1.336,5.34,1111122 
DISL,ioos:station:DISL:PPTA:1,2017-08-06T05:30:00Z,30.2791,-87.5561,1.34,4.75,1111122 
DISL,ioos:station:DISL:PPTA:1,2017-08-06T06:00:00Z,30.2791,-87.5561,1.342,5.19,1111122 
DISL,ioos:station:DISL:PPTA:1,2017-08-06T06:30:00Z,30.2791,-87.5561,1.356,4.89,1111122 
DISL,ioos:station:DISL:PPTA:1,2017-08-06T07:00:00Z,30.2791,-87.5561,1.352,5.07,1111122 
DISL,ioos:station:DISL:PPTA:1,2017-08-06T07:30:00Z,30.2791,-87.5561,1.346,3.34,1111122 
DISL,ioos:station:DISL:PPTA:1,2017-08-06T08:00:00Z,30.2791,-87.5561,1.347,2.64,1111122 
DISL,ioos:station:DISL:PPTA:1,2017-08-06T08:30:00Z,30.2791,-87.5561,1.364,3.33,1111122 
DISL,ioos:station:DISL:PPTA:1,2017-08-06T09:00:00Z,30.2791,-87.5561,1.392,4.06,1111122 
DISL,ioos:station:DISL:PPTA:1,2017-08-06T09:30:00Z,30.2791,-87.5561,1.4,2.26,1111122 
DISL,ioos:station:DISL:PPTA:1,2017-08-06T10:00:00Z,30.2791,-87.5561,1.43,4.1,1111122 
DISL,ioos:station:DISL:PPTA:1,2017-08-06T10:30:00Z,30.2791,-87.5561,1.468,4.8,1111122 
DISL,ioos:station:DISL:PPTA:1,2017-08-06T11:00:00Z,30.2791,-87.5561,1.481,4.68,1111122 
DISL,ioos:station:DISL:PPTA:1,2017-08-06T11:30:00Z,30.2791,-87.5561,1.506,4.15,1111122 
DISL,ioos:station:DISL:PPTA:1,2017-08-06T12:00:00Z,30.2791,-87.5561,1.516,4.33,1111122 
DISL,ioos:station:DISL:PPTA:1,2017-08-06T12:30:00Z,30.2791,-87.5561,1.544,4.56,1111122 
DISL,ioos:station:DISL:PPTA:1,2017-08-06T13:00:00Z,30.2791,-87.5561,1.547,4.19,1111122 
DISL,ioos:station:DISL:PPTA:1,2017-08-06T13:30:00Z,30.2791,-87.5561,1.546,2.78,1111122 
DISL,ioos:station:DISL:PPTA:1,2017-08-06T14:00:00Z,30.2791,-87.5561,1.556,4.45,1111122 
DISL,ioos:station:DISL:PPTA:1,2017-08-06T14:30:00Z,30.2791,-87.5561,1.55,3.95,1111122 
DISL,ioos:station:DISL:PPTA:1,2017-08-06T15:00:00Z,30.2791,-87.5561,1.567,3.83,1111122 
DISL,ioos:station:DISL:PPTA:1,2017-08-06T15:30:00Z,30.2791,-87.5561,1.55,3.71,1111122 